TIME,�t�@���q�[�^�m���b�g���n,�t���O,�t�@���q�[�^�mMJ�n,�t���O
2003/3/1 0:00,0,0,0,0
2003/3/1 0:15,0,0,0,0
2003/3/1 0:30,0,0,0,0
2003/3/1 0:45,0,0,0,0
2003/3/1 1:00,0,0,0,0
2003/3/1 1:15,0,0,0,0
2003/3/1 1:30,0,0,0,0
2003/3/1 1:45,0,0,0,0
2003/3/1 2:00,0,0,0,0
2003/3/1 2:15,0,0,0,0
2003/3/1 2:30,0,0,0,0
2003/3/1 2:45,0,0,0,0
2003/3/1 3:00,0,0,0,0
2003/3/1 3:15,0,0,0,0
2003/3/1 3:30,0,0,0,0
2003/3/1 3:45,0,0,0,0
2003/3/1 4:00,0,0,0,0
2003/3/1 4:15,0,0,0,0
2003/3/1 4:30,0,0,0,0
2003/3/1 4:45,0,0,0,0
2003/3/1 5:00,0,0,0,0
2003/3/1 5:15,0,0,0,0
2003/3/1 5:30,0,0,0,0
2003/3/1 5:45,0,0,0,0
2003/3/1 6:00,0,0,0,0
2003/3/1 6:15,0,0,0,0
2003/3/1 6:30,0,0,0,0
2003/3/1 6:45,0,0,0,0
2003/3/1 7:00,0,0,0,0
2003/3/1 7:15,0,0,0,0
2003/3/1 7:30,0,0,0,0
2003/3/1 7:45,0,0,0,0
2003/3/1 8:00,0,0,0,0
2003/3/1 8:15,0,0,0,0
2003/3/1 8:30,0,0,0,0
2003/3/1 8:45,0,0,0,0
2003/3/1 9:00,0,0,0,0
2003/3/1 9:15,0,0,0,0
2003/3/1 9:30,0,0,0,0
2003/3/1 9:45,0,0,0,0
2003/3/1 10:00,0,0,0,0
2003/3/1 10:15,2.54475E-05,0,3.12,0
2003/3/1 10:30,0.00010179,0,12.45,0
2003/3/1 10:45,0.00010179,0,12.45,0
2003/3/1 11:00,9.07725E-05,0,11.1,0
2003/3/1 11:15,6.04013E-05,0,3.23,0
2003/3/1 11:30,0,0,0,0
2003/3/1 11:45,0,0,0,0
2003/3/1 12:00,0,0,0,0
2003/3/1 12:15,0,0,0,0
2003/3/1 12:30,0,0,0,0
2003/3/1 12:45,0,0,0,0
2003/3/1 13:00,0,0,0,0
2003/3/1 13:15,0,0,0,0
2003/3/1 13:30,0,0,0,0
2003/3/1 13:45,0,0,0,0
2003/3/1 14:00,0,0,0,0
2003/3/1 14:15,0,0,0,0
2003/3/1 14:30,0,0,0,0
2003/3/1 14:45,0,0,0,0
2003/3/1 15:00,0,0,0,0
2003/3/1 15:15,8.29238E-05,0,10.14,0
2003/3/1 15:30,9.65738E-05,0,11.82,0
2003/3/1 15:45,9.59888E-05,0,11.75,0
2003/3/1 16:00,9.94988E-05,0,12.17,0
2003/3/1 16:15,6.15713E-05,0,7.53,0
2003/3/1 16:30,5.97675E-05,0,7.31,0
2003/3/1 16:45,3.53438E-05,0,4.33,0
2003/3/1 17:00,2.23763E-05,0,2.74,0
2003/3/1 17:15,0.000021645,0,2.65,0
2003/3/1 17:30,0.000021645,0,2.64,0
2003/3/1 17:45,0.000039975,0,0.88,0
2003/3/1 18:00,0,0,0,0
2003/3/1 18:15,0,0,0,0
2003/3/1 18:30,0,0,0,0
2003/3/1 18:45,0,0,0,0
2003/3/1 19:00,0,0,0,0
2003/3/1 19:15,0,0,0,0
2003/3/1 19:30,0,0,0,0
2003/3/1 19:45,0,0,0,0
2003/3/1 20:00,0,0,0,0
2003/3/1 20:15,0,0,0,0
2003/3/1 20:30,0,0,0,0
2003/3/1 20:45,0,0,0,0
2003/3/1 21:00,0,0,0,0
2003/3/1 21:15,0,0,0,0
2003/3/1 21:30,0,0,0,0
2003/3/1 21:45,0,0,0,0
2003/3/1 22:00,0,0,0,0
2003/3/1 22:15,8.25825E-05,0,10.1,0
2003/3/1 22:30,0.000065715,0,8.04,0
2003/3/1 22:45,3.34425E-05,0,4.09,0
2003/3/1 23:00,3.81225E-05,0,0,0
2003/3/1 23:15,0,0,0,0
2003/3/1 23:30,0,0,0,0
2003/3/1 23:45,0,0,0,0
2003/3/2 0:00,0,0,0,0
2003/3/2 0:15,0,0,0,0
2003/3/2 0:30,0,0,0,0
2003/3/2 0:45,0,0,0,0
2003/3/2 1:00,0,0,0,0
2003/3/2 1:15,0,0,0,0
2003/3/2 1:30,0,0,0,0
2003/3/2 1:45,0,0,0,0
2003/3/2 2:00,0,0,0,0
2003/3/2 2:15,0,0,0,0
2003/3/2 2:30,0,0,0,0
2003/3/2 2:45,0,0,0,0
2003/3/2 3:00,0,0,0,0
2003/3/2 3:15,0,0,0,0
2003/3/2 3:30,0,0,0,0
2003/3/2 3:45,0,0,0,0
2003/3/2 4:00,0,0,0,0
2003/3/2 4:15,0,0,0,0
2003/3/2 4:30,0,0,0,0
2003/3/2 4:45,0,0,0,0
2003/3/2 5:00,0,0,0,0
2003/3/2 5:15,0,0,0,0
2003/3/2 5:30,0,0,0,0
2003/3/2 5:45,0,0,0,0
2003/3/2 6:00,0,0,0,0
2003/3/2 6:15,0,0,0,0
2003/3/2 6:30,0,0,0,0
2003/3/2 6:45,0,0,0,0
2003/3/2 7:00,0,0,0,0
2003/3/2 7:15,0,0,0,0
2003/3/2 7:30,0,0,0,0
2003/3/2 7:45,0,0,0,0
2003/3/2 8:00,0,0,0,0
2003/3/2 8:15,0,0,0,0
2003/3/2 8:30,0,0,0,0
2003/3/2 8:45,6.44963E-05,0,7.89,0
2003/3/2 9:00,8.67263E-05,0,10.61,0
2003/3/2 9:15,5.91825E-05,0,7.24,0
2003/3/2 9:30,3.72938E-05,0,4.56,0
2003/3/2 9:45,4.09988E-05,0,5.02,0
2003/3/2 10:00,3.27113E-05,0,4,0
2003/3/2 10:15,4.12913E-05,0,5.05,0
2003/3/2 10:30,2.85188E-05,0,3.49,0
2003/3/2 10:45,3.22725E-05,0,3.95,0
2003/3/2 11:00,2.73975E-05,0,3.35,0
2003/3/2 11:15,0.00002847,0,3.48,0
2003/3/2 11:30,2.70563E-05,0,3.31,0
2003/3/2 11:45,3.64163E-05,0,0,0
2003/3/2 12:00,0,0,0,0
2003/3/2 12:15,0,0,0,0
2003/3/2 12:30,0,0,0,0
2003/3/2 12:45,0,0,0,0
2003/3/2 13:00,0,0,0,0
2003/3/2 13:15,0,0,0,0
2003/3/2 13:30,0,0,0,0
2003/3/2 13:45,0,0,0,0
2003/3/2 14:00,0,0,0,0
2003/3/2 14:15,0,0,0,0
2003/3/2 14:30,0,0,0,0
2003/3/2 14:45,0,0,0,0
2003/3/2 15:00,0,0,0,0
2003/3/2 15:15,0,0,0,0
2003/3/2 15:30,0,0,0,0
2003/3/2 15:45,0,0,0,0
2003/3/2 16:00,0,0,0,0
2003/3/2 16:15,0,0,0,0
2003/3/2 16:30,0,0,0,0
2003/3/2 16:45,0,0,0,0
2003/3/2 17:00,0,0,0,0
2003/3/2 17:15,0,0,0,0
2003/3/2 17:30,0,0,0,0
2003/3/2 17:45,0,0,0,0
2003/3/2 18:00,0,0,0,0
2003/3/2 18:15,0,0,0,0
2003/3/2 18:30,0,0,0,0
2003/3/2 18:45,0,0,0,0
2003/3/2 19:00,0,0,0,0
2003/3/2 19:15,0,0,0,0
2003/3/2 19:30,0,0,0,0
2003/3/2 19:45,0,0,0,0
2003/3/2 20:00,0,0,0,0
2003/3/2 20:15,0,0,0,0
2003/3/2 20:30,0,0,0,0
2003/3/2 20:45,3.42225E-05,0,4.19,0
2003/3/2 21:00,0.00006474,0,7.92,0
2003/3/2 21:15,3.44175E-05,0,4.21,0
2003/3/2 21:30,2.35463E-05,0,2.58,0
2003/3/2 21:45,0,0,0,0
2003/3/2 22:00,0,0,0,0
2003/3/2 22:15,0,0,0,0
2003/3/2 22:30,2.29125E-05,0,2.8,0
2003/3/2 22:45,0.000021645,0,2.65,0
2003/3/2 23:00,4.02675E-05,0,4.93,0
2003/3/2 23:15,1.04813E-05,0,0,0
2003/3/2 23:30,0,0,0,0
2003/3/2 23:45,0,0,0,0
2003/3/3 0:00,0,0,0,0
2003/3/3 0:15,0,0,0,0
2003/3/3 0:30,0,0,0,0
2003/3/3 0:45,0,0,0,0
2003/3/3 1:00,0,0,0,0
2003/3/3 1:15,0,0,0,0
2003/3/3 1:30,0,0,0,0
2003/3/3 1:45,0,0,0,0
2003/3/3 2:00,0,0,0,0
2003/3/3 2:15,0,0,0,0
2003/3/3 2:30,0,0,0,0
2003/3/3 2:45,0,0,0,0
2003/3/3 3:00,0,0,0,0
2003/3/3 3:15,0,0,0,0
2003/3/3 3:30,0,0,0,0
2003/3/3 3:45,0,0,0,0
2003/3/3 4:00,0,0,0,0
2003/3/3 4:15,0,0,0,0
2003/3/3 4:30,0,0,0,0
2003/3/3 4:45,0,0,0,0
2003/3/3 5:00,0,0,0,0
2003/3/3 5:15,0,0,0,0
2003/3/3 5:30,0,0,0,0
2003/3/3 5:45,0,0,0,0
2003/3/3 6:00,0,0,0,0
2003/3/3 6:15,0,0,0,0
2003/3/3 6:30,7.56113E-05,0,9.25,0
2003/3/3 6:45,9.44288E-05,0,5.74,0
2003/3/3 7:00,0,0,0,0
2003/3/3 7:15,0,0,0,0
2003/3/3 7:30,0,0,0,0
2003/3/3 7:45,0,0,0,0
2003/3/3 8:00,0,0,0,0
2003/3/3 8:15,0,0,0,0
2003/3/3 8:30,0,0,0,0
2003/3/3 8:45,0,0,0,0
2003/3/3 9:00,0,0,0,0
2003/3/3 9:15,0,0,0,0
2003/3/3 9:30,0,0,0,0
2003/3/3 9:45,0,0,0,0
2003/3/3 10:00,0,0,0,0
2003/3/3 10:15,0,0,0,0
2003/3/3 10:30,0,0,0,0
2003/3/3 10:45,0,0,0,0
2003/3/3 11:00,0,0,0,0
2003/3/3 11:15,0,0,0,0
2003/3/3 11:30,0,0,0,0
2003/3/3 11:45,0,0,0,0
2003/3/3 12:00,0,0,0,0
2003/3/3 12:15,0,0,0,0
2003/3/3 12:30,0,0,0,0
2003/3/3 12:45,0,0,0,0
2003/3/3 13:00,0,0,0,0
2003/3/3 13:15,0,0,0,0
2003/3/3 13:30,0,0,0,0
2003/3/3 13:45,0,0,0,0
2003/3/3 14:00,0,0,0,0
2003/3/3 14:15,0,0,0,0
2003/3/3 14:30,0,0,0,0
2003/3/3 14:45,0,0,0,0
2003/3/3 15:00,0,0,0,0
2003/3/3 15:15,0,0,0,0
2003/3/3 15:30,0,0,0,0
2003/3/3 15:45,0,0,0,0
2003/3/3 16:00,0,0,0,0
2003/3/3 16:15,0,0,0,0
2003/3/3 16:30,0,0,0,0
2003/3/3 16:45,0,0,0,0
2003/3/3 17:00,0,0,0,0
2003/3/3 17:15,0,0,0,0
2003/3/3 17:30,0,0,0,0
2003/3/3 17:45,0,0,0,0
2003/3/3 18:00,0,0,0,0
2003/3/3 18:15,0,0,0,0
2003/3/3 18:30,0,0,0,0
2003/3/3 18:45,0,0,0,0
2003/3/3 19:00,0,0,0,0
2003/3/3 19:15,0,0,0,0
2003/3/3 19:30,0,0,0,0
2003/3/3 19:45,0,0,0,0
2003/3/3 20:00,0,0,0,0
2003/3/3 20:15,0,0,0,0
2003/3/3 20:30,0,0,0,0
2003/3/3 20:45,0,0,0,0
2003/3/3 21:00,0,0,0,0
2003/3/3 21:15,0,0,0,0
2003/3/3 21:30,0,0,0,0
2003/3/3 21:45,0,0,0,0
2003/3/3 22:00,0,0,0,0
2003/3/3 22:15,0,0,0,0
2003/3/3 22:30,0,0,0,0
2003/3/3 22:45,0,0,0,0
2003/3/3 23:00,0,0,0,0
2003/3/3 23:15,0,0,0,0
2003/3/3 23:30,0,0,0,0
2003/3/3 23:45,0,0,0,0
2003/3/4 0:00,0,0,0,0
2003/3/4 0:15,0,0,0,0
2003/3/4 0:30,0,0,0,0
2003/3/4 0:45,0,0,0,0
2003/3/4 1:00,0,0,0,0
2003/3/4 1:15,0,0,0,0
2003/3/4 1:30,0,0,0,0
2003/3/4 1:45,0,0,0,0
2003/3/4 2:00,0,0,0,0
2003/3/4 2:15,0,0,0,0
2003/3/4 2:30,0,0,0,0
2003/3/4 2:45,0,0,0,0
2003/3/4 3:00,0,0,0,0
2003/3/4 3:15,0,0,0,0
2003/3/4 3:30,0,0,0,0
2003/3/4 3:45,0,0,0,0
2003/3/4 4:00,0,0,0,0
2003/3/4 4:15,0,0,0,0
2003/3/4 4:30,0,0,0,0
2003/3/4 4:45,0,0,0,0
2003/3/4 5:00,0,0,0,0
2003/3/4 5:15,0,0,0,0
2003/3/4 5:30,0,0,0,0
2003/3/4 5:45,0,0,0,0
2003/3/4 6:00,0,0,0,0
2003/3/4 6:15,0,0,0,0
2003/3/4 6:30,0.00010101,0,12.35,0
2003/3/4 6:45,0.00009984,0,12.21,0
2003/3/4 7:00,5.28938E-05,0,0,0
2003/3/4 7:15,0,0,0,0
2003/3/4 7:30,0,0,0,0
2003/3/4 7:45,0,0,0,0
2003/3/4 8:00,0,0,0,0
2003/3/4 8:15,0,0,0,0
2003/3/4 8:30,0,0,0,0
2003/3/4 8:45,0,0,0,0
2003/3/4 9:00,0,0,0,0
2003/3/4 9:15,0,0,0,0
2003/3/4 9:30,0,0,0,0
2003/3/4 9:45,0,0,0,0
2003/3/4 10:00,0,0,0,0
2003/3/4 10:15,0,0,0,0
2003/3/4 10:30,0,0,0,0
2003/3/4 10:45,0,0,0,0
2003/3/4 11:00,0,0,0,0
2003/3/4 11:15,0,0,0,0
2003/3/4 11:30,0,0,0,0
2003/3/4 11:45,0,0,0,0
2003/3/4 12:00,0,0,0,0
2003/3/4 12:15,0,0,0,0
2003/3/4 12:30,0,0,0,0
2003/3/4 12:45,0,0,0,0
2003/3/4 13:00,0,0,0,0
2003/3/4 13:15,0,0,0,0
2003/3/4 13:30,0,0,0,0
2003/3/4 13:45,0,0,0,0
2003/3/4 14:00,0,0,0,0
2003/3/4 14:15,0,0,0,0
2003/3/4 14:30,0,0,0,0
2003/3/4 14:45,0,0,0,0
2003/3/4 15:00,0,0,0,0
2003/3/4 15:15,0,0,0,0
2003/3/4 15:30,0,0,0,0
2003/3/4 15:45,0,0,0,0
2003/3/4 16:00,0,0,0,0
2003/3/4 16:15,0,0,0,0
2003/3/4 16:30,0,0,0,0
2003/3/4 16:45,0,0,0,0
2003/3/4 17:00,0,0,0,0
2003/3/4 17:15,0,0,0,0
2003/3/4 17:30,0,0,0,0
2003/3/4 17:45,0,0,0,0
2003/3/4 18:00,0,0,0,0
2003/3/4 18:15,0,0,0,0
2003/3/4 18:30,0,0,0,0
2003/3/4 18:45,0,0,0,0
2003/3/4 19:00,0,0,0,0
2003/3/4 19:15,0,0,0,0
2003/3/4 19:30,0,0,0,0
2003/3/4 19:45,0,0,0,0
2003/3/4 20:00,0,0,0,0
2003/3/4 20:15,0,0,0,0
2003/3/4 20:30,0,0,0,0
2003/3/4 20:45,0,0,0,0
2003/3/4 21:00,0,0,0,0
2003/3/4 21:15,0,0,0,0
2003/3/4 21:30,0,0,0,0
2003/3/4 21:45,0,0,0,0
2003/3/4 22:00,0,0,0,0
2003/3/4 22:15,0,0,0,0
2003/3/4 22:30,0,0,0,0
2003/3/4 22:45,0,0,0,0
2003/3/4 23:00,0,0,0,0
2003/3/4 23:15,0,0,0,0
2003/3/4 23:30,0,0,0,0
2003/3/4 23:45,0,0,0,0
2003/3/5 0:00,0,0,0,0
2003/3/5 0:15,0,0,0,0
2003/3/5 0:30,0,0,0,0
2003/3/5 0:45,0,0,0,0
2003/3/5 1:00,0,0,0,0
2003/3/5 1:15,0,0,0,0
2003/3/5 1:30,0,0,0,0
2003/3/5 1:45,0,0,0,0
2003/3/5 2:00,0,0,0,0
2003/3/5 2:15,0,0,0,0
2003/3/5 2:30,0,0,0,0
2003/3/5 2:45,0,0,0,0
2003/3/5 3:00,0,0,0,0
2003/3/5 3:15,0,0,0,0
2003/3/5 3:30,0,0,0,0
2003/3/5 3:45,0,0,0,0
2003/3/5 4:00,0,0,0,0
2003/3/5 4:15,0,0,0,0
2003/3/5 4:30,0,0,0,0
2003/3/5 4:45,0,0,0,0
2003/3/5 5:00,0,0,0,0
2003/3/5 5:15,0,0,0,0
2003/3/5 5:30,0,0,0,0
2003/3/5 5:45,0,0,0,0
2003/3/5 6:00,0,0,0,0
2003/3/5 6:15,0,0,0,0
2003/3/5 6:30,0,0,0,0
2003/3/5 6:45,0,0,0,0
2003/3/5 7:00,0,0,0,0
2003/3/5 7:15,0,0,0,0
2003/3/5 7:30,0,0,0,0
2003/3/5 7:45,0,0,0,0
2003/3/5 8:00,0,0,0,0
2003/3/5 8:15,0,0,0,0
2003/3/5 8:30,0,0,0,0
2003/3/5 8:45,0,0,0,0
2003/3/5 9:00,0,0,0,0
2003/3/5 9:15,0,0,0,0
2003/3/5 9:30,0,0,0,0
2003/3/5 9:45,0,0,0,0
2003/3/5 10:00,0,0,0,0
2003/3/5 10:15,0,0,0,0
2003/3/5 10:30,0,0,0,0
2003/3/5 10:45,0,0,0,0
2003/3/5 11:00,0,0,0,0
2003/3/5 11:15,0,0,0,0
2003/3/5 11:30,0,0,0,0
2003/3/5 11:45,0,0,0,0
2003/3/5 12:00,0,0,0,0
2003/3/5 12:15,0,0,0,0
2003/3/5 12:30,0,0,0,0
2003/3/5 12:45,0,0,0,0
2003/3/5 13:00,0,0,0,0
2003/3/5 13:15,0,0,0,0
2003/3/5 13:30,0,0,0,0
2003/3/5 13:45,0,0,0,0
2003/3/5 14:00,0,0,0,0
2003/3/5 14:15,0,0,0,0
2003/3/5 14:30,0,0,0,0
2003/3/5 14:45,0,0,0,0
2003/3/5 15:00,0,0,0,0
2003/3/5 15:15,0,0,0,0
2003/3/5 15:30,0,0,0,0
2003/3/5 15:45,0,0,0,0
2003/3/5 16:00,0,0,0,0
2003/3/5 16:15,0,0,0,0
2003/3/5 16:30,0,0,0,0
2003/3/5 16:45,0,0,0,0
2003/3/5 17:00,0,0,0,0
2003/3/5 17:15,0,0,0,0
2003/3/5 17:30,0,0,0,0
2003/3/5 17:45,0,0,0,0
2003/3/5 18:00,0,0,0,0
2003/3/5 18:15,0,0,0,0
2003/3/5 18:30,0,0,0,0
2003/3/5 18:45,0,0,0,0
2003/3/5 19:00,0,0,0,0
2003/3/5 19:15,0,0,0,0
2003/3/5 19:30,0,0,0,0
2003/3/5 19:45,0,0,0,0
2003/3/5 20:00,0,0,0,0
2003/3/5 20:15,0,0,0,0
2003/3/5 20:30,0,0,0,0
2003/3/5 20:45,0,0,0,0
2003/3/5 21:00,0,0,0,0
2003/3/5 21:15,0,0,0,0
2003/3/5 21:30,0,0,0,0
2003/3/5 21:45,0,0,0,0
2003/3/5 22:00,0,0,0,0
2003/3/5 22:15,0,0,0,0
2003/3/5 22:30,0,0,0,0
2003/3/5 22:45,0,0,0,0
2003/3/5 23:00,0,0,0,0
2003/3/5 23:15,0,0,0,0
2003/3/5 23:30,0,0,0,0
2003/3/5 23:45,0,0,0,0
2003/3/6 0:00,0,0,0,0
2003/3/6 0:15,0,0,0,0
2003/3/6 0:30,0,0,0,0
2003/3/6 0:45,0,0,0,0
2003/3/6 1:00,0,0,0,0
2003/3/6 1:15,0,0,0,0
2003/3/6 1:30,0,0,0,0
2003/3/6 1:45,0,0,0,0
2003/3/6 2:00,0,0,0,0
2003/3/6 2:15,0,0,0,0
2003/3/6 2:30,0,0,0,0
2003/3/6 2:45,0,0,0,0
2003/3/6 3:00,0,0,0,0
2003/3/6 3:15,0,0,0,0
2003/3/6 3:30,0,0,0,0
2003/3/6 3:45,0,0,0,0
2003/3/6 4:00,0,0,0,0
2003/3/6 4:15,0,0,0,0
2003/3/6 4:30,0,0,0,0
2003/3/6 4:45,0,0,0,0
2003/3/6 5:00,0,0,0,0
2003/3/6 5:15,0,0,0,0
2003/3/6 5:30,0,0,0,0
2003/3/6 5:45,0,0,0,0
2003/3/6 6:00,0,0,0,0
2003/3/6 6:15,4.3875E-06,0,0.54,0
2003/3/6 6:30,0.00010179,0,12.45,0
2003/3/6 6:45,0.000101108,0,12.37,0
2003/3/6 7:00,5.56238E-05,0,4.08,0
2003/3/6 7:15,0,0,0,0
2003/3/6 7:30,0,0,0,0
2003/3/6 7:45,0,0,0,0
2003/3/6 8:00,0,0,0,0
2003/3/6 8:15,0,0,0,0
2003/3/6 8:30,0,0,0,0
2003/3/6 8:45,0,0,0,0
2003/3/6 9:00,0,0,0,0
2003/3/6 9:15,0,0,0,0
2003/3/6 9:30,0,0,0,0
2003/3/6 9:45,0,0,0,0
2003/3/6 10:00,0,0,0,0
2003/3/6 10:15,0,0,0,0
2003/3/6 10:30,0,0,0,0
2003/3/6 10:45,0,0,0,0
2003/3/6 11:00,0,0,0,0
2003/3/6 11:15,0,0,0,0
2003/3/6 11:30,0,0,0,0
2003/3/6 11:45,0,0,0,0
2003/3/6 12:00,0,0,0,0
2003/3/6 12:15,0,0,0,0
2003/3/6 12:30,0,0,0,0
2003/3/6 12:45,0,0,0,0
2003/3/6 13:00,0,0,0,0
2003/3/6 13:15,0,0,0,0
2003/3/6 13:30,0,0,0,0
2003/3/6 13:45,0,0,0,0
2003/3/6 14:00,0,0,0,0
2003/3/6 14:15,0,0,0,0
2003/3/6 14:30,0,0,0,0
2003/3/6 14:45,0,0,0,0
2003/3/6 15:00,0,0,0,0
2003/3/6 15:15,0,0,0,0
2003/3/6 15:30,0,0,0,0
2003/3/6 15:45,0,0,0,0
2003/3/6 16:00,0,0,0,0
2003/3/6 16:15,0,0,0,0
2003/3/6 16:30,0,0,0,0
2003/3/6 16:45,0,0,0,0
2003/3/6 17:00,0,0,0,0
2003/3/6 17:15,0,0,0,0
2003/3/6 17:30,0,0,0,0
2003/3/6 17:45,0,0,0,0
2003/3/6 18:00,0,0,0,0
2003/3/6 18:15,0,0,0,0
2003/3/6 18:30,0,0,0,0
2003/3/6 18:45,0,0,0,0
2003/3/6 19:00,0,0,0,0
2003/3/6 19:15,0,0,0,0
2003/3/6 19:30,0,0,0,0
2003/3/6 19:45,0,0,0,0
2003/3/6 20:00,0,0,0,0
2003/3/6 20:15,0,0,0,0
2003/3/6 20:30,0,0,0,0
2003/3/6 20:45,0,0,0,0
2003/3/6 21:00,0,0,0,0
2003/3/6 21:15,0,0,0,0
2003/3/6 21:30,0,0,0,0
2003/3/6 21:45,0,0,0,0
2003/3/6 22:00,0,0,0,0
2003/3/6 22:15,0,0,0,0
2003/3/6 22:30,0,0,0,0
2003/3/6 22:45,0,0,0,0
2003/3/6 23:00,0,0,0,0
2003/3/6 23:15,0,0,0,0
2003/3/6 23:30,0,0,0,0
2003/3/6 23:45,0,0,0,0
2003/3/7 0:00,0,0,0,0
2003/3/7 0:15,0,0,0,0
2003/3/7 0:30,0,0,0,0
2003/3/7 0:45,0,0,0,0
2003/3/7 1:00,0,0,0,0
2003/3/7 1:15,0,0,0,0
2003/3/7 1:30,0,0,0,0
2003/3/7 1:45,0,0,0,0
2003/3/7 2:00,0,0,0,0
2003/3/7 2:15,0,0,0,0
2003/3/7 2:30,0,0,0,0
2003/3/7 2:45,0,0,0,0
2003/3/7 3:00,0,0,0,0
2003/3/7 3:15,0,0,0,0
2003/3/7 3:30,0,0,0,0
2003/3/7 3:45,0,0,0,0
2003/3/7 4:00,0,0,0,0
2003/3/7 4:15,0,0,0,0
2003/3/7 4:30,0,0,0,0
2003/3/7 4:45,0,0,0,0
2003/3/7 5:00,0,0,0,0
2003/3/7 5:15,0,0,0,0
2003/3/7 5:30,0,0,0,0
2003/3/7 5:45,0,0,0,0
2003/3/7 6:00,0,0,0,0
2003/3/7 6:15,4.78238E-05,0,5.85,0
2003/3/7 6:30,8.90175E-05,0,10.89,0
2003/3/7 6:45,0.000063375,0,7.75,0
2003/3/7 7:00,3.05175E-05,0,0,0
2003/3/7 7:15,0,0,0,0
2003/3/7 7:30,0,0,0,0
2003/3/7 7:45,0,0,0,0
2003/3/7 8:00,0,0,0,0
2003/3/7 8:15,0,0,0,0
2003/3/7 8:30,0,0,0,0
2003/3/7 8:45,0,0,0,0
2003/3/7 9:00,0,0,0,0
2003/3/7 9:15,0,0,0,0
2003/3/7 9:30,0,0,0,0
2003/3/7 9:45,0,0,0,0
2003/3/7 10:00,0,0,0,0
2003/3/7 10:15,0,0,0,0
2003/3/7 10:30,0,0,0,0
2003/3/7 10:45,0,0,0,0
2003/3/7 11:00,0,0,0,0
2003/3/7 11:15,0,0,0,0
2003/3/7 11:30,0,0,0,0
2003/3/7 11:45,0,0,0,0
2003/3/7 12:00,0,0,0,0
2003/3/7 12:15,0,0,0,0
2003/3/7 12:30,0,0,0,0
2003/3/7 12:45,0,0,0,0
2003/3/7 13:00,0,0,0,0
2003/3/7 13:15,0,0,0,0
2003/3/7 13:30,0,0,0,0
2003/3/7 13:45,0,0,0,0
2003/3/7 14:00,0,0,0,0
2003/3/7 14:15,0,0,0,0
2003/3/7 14:30,0,0,0,0
2003/3/7 14:45,0,0,0,0
2003/3/7 15:00,0,0,0,0
2003/3/7 15:15,0,0,0,0
2003/3/7 15:30,0,0,0,0
2003/3/7 15:45,0,0,0,0
2003/3/7 16:00,0,0,0,0
2003/3/7 16:15,0,0,0,0
2003/3/7 16:30,0,0,0,0
2003/3/7 16:45,0,0,0,0
2003/3/7 17:00,0,0,0,0
2003/3/7 17:15,0,0,0,0
2003/3/7 17:30,0,0,0,0
2003/3/7 17:45,0,0,0,0
2003/3/7 18:00,0,0,0,0
2003/3/7 18:15,0,0,0,0
2003/3/7 18:30,0,0,0,0
2003/3/7 18:45,0,0,0,0
2003/3/7 19:00,0,0,0,0
2003/3/7 19:15,0,0,0,0
2003/3/7 19:30,0,0,0,0
2003/3/7 19:45,0,0,0,0
2003/3/7 20:00,0,0,0,0
2003/3/7 20:15,0,0,0,0
2003/3/7 20:30,0,0,0,0
2003/3/7 20:45,0,0,0,0
2003/3/7 21:00,0,0,0,0
2003/3/7 21:15,0,0,0,0
2003/3/7 21:30,0,0,0,0
2003/3/7 21:45,0,0,0,0
2003/3/7 22:00,0,0,0,0
2003/3/7 22:15,0,0,0,0
2003/3/7 22:30,0,0,0,0
2003/3/7 22:45,0,0,0,0
2003/3/7 23:00,0,0,0,0
2003/3/7 23:15,0,0,0,0
2003/3/7 23:30,0,0,0,0
2003/3/7 23:45,0,0,0,0
2003/3/8 0:00,0,0,0,0
2003/3/8 0:15,0,0,0,0
2003/3/8 0:30,0,0,0,0
2003/3/8 0:45,0,0,0,0
2003/3/8 1:00,0,0,0,0
2003/3/8 1:15,0,0,0,0
2003/3/8 1:30,0,0,0,0
2003/3/8 1:45,0,0,0,0
2003/3/8 2:00,0,0,0,0
2003/3/8 2:15,0,0,0,0
2003/3/8 2:30,0,0,0,0
2003/3/8 2:45,0,0,0,0
2003/3/8 3:00,0,0,0,0
2003/3/8 3:15,0,0,0,0
2003/3/8 3:30,0,0,0,0
2003/3/8 3:45,0,0,0,0
2003/3/8 4:00,0,0,0,0
2003/3/8 4:15,0,0,0,0
2003/3/8 4:30,0,0,0,0
2003/3/8 4:45,0,0,0,0
2003/3/8 5:00,0,0,0,0
2003/3/8 5:15,0,0,0,0
2003/3/8 5:30,0,0,0,0
2003/3/8 5:45,0,0,0,0
2003/3/8 6:00,0,0,0,0
2003/3/8 6:15,0,0,0,0
2003/3/8 6:30,0,0,0,0
2003/3/8 6:45,0,0,0,0
2003/3/8 7:00,0,0,0,0
2003/3/8 7:15,0,0,0,0
2003/3/8 7:30,0,0,0,0
2003/3/8 7:45,0,0,0,0
2003/3/8 8:00,0,0,0,0
2003/3/8 8:15,0,0,0,0
2003/3/8 8:30,0,0,0,0
2003/3/8 8:45,0,0,0,0
2003/3/8 9:00,0,0,0,0
2003/3/8 9:15,0,0,0,0
2003/3/8 9:30,0,0,0,0
2003/3/8 9:45,0,0,0,0
2003/3/8 10:00,0,0,0,0
2003/3/8 10:15,0,0,0,0
2003/3/8 10:30,1.4625E-06,0,0.18,0
2003/3/8 10:45,9.35513E-05,0,11.44,0
2003/3/8 11:00,7.50263E-05,0,9.18,0
2003/3/8 11:15,0.0000585,0,7.15,0
2003/3/8 11:30,5.21625E-05,0,6.38,0
2003/3/8 11:45,0.000036855,0,4.51,0
2003/3/8 12:00,4.03163E-05,0,4.93,0
2003/3/8 12:15,3.10538E-05,0,3.8,0
2003/3/8 12:30,4.14863E-05,0,5.07,0
2003/3/8 12:45,0.000046995,0,5.75,0
2003/3/8 13:00,4.72875E-05,0,5.79,0
2003/3/8 13:15,3.06638E-05,0,3.75,0
2003/3/8 13:30,3.73913E-05,0,0.88,0
2003/3/8 13:45,0,0,0,0
2003/3/8 14:00,0,0,0,0
2003/3/8 14:15,0,0,0,0
2003/3/8 14:30,0,0,0,0
2003/3/8 14:45,0,0,0,0
2003/3/8 15:00,0,0,0,0
2003/3/8 15:15,0,0,0,0
2003/3/8 15:30,0,0,0,0
2003/3/8 15:45,0,0,0,0
2003/3/8 16:00,0,0,0,0
2003/3/8 16:15,0,0,0,0
2003/3/8 16:30,0,0,0,0
2003/3/8 16:45,0,0,0,0
2003/3/8 17:00,0,0,0,0
2003/3/8 17:15,0,0,0,0
2003/3/8 17:30,0,0,0,0
2003/3/8 17:45,0,0,0,0
2003/3/8 18:00,0,0,0,0
2003/3/8 18:15,0,0,0,0
2003/3/8 18:30,0,0,0,0
2003/3/8 18:45,0,0,0,0
2003/3/8 19:00,0,0,0,0
2003/3/8 19:15,0,0,0,0
2003/3/8 19:30,0,0,0,0
2003/3/8 19:45,0,0,0,0
2003/3/8 20:00,0,0,0,0
2003/3/8 20:15,0,0,0,0
2003/3/8 20:30,0,0,0,0
2003/3/8 20:45,0,0,0,0
2003/3/8 21:00,0,0,0,0
2003/3/8 21:15,0,0,0,0
2003/3/8 21:30,0,0,0,0
2003/3/8 21:45,0,0,0,0
2003/3/8 22:00,0,0,0,0
2003/3/8 22:15,0,0,0,0
2003/3/8 22:30,0,0,0,0
2003/3/8 22:45,0,0,0,0
2003/3/8 23:00,0,0,0,0
2003/3/8 23:15,0,0,0,0
2003/3/8 23:30,0,0,0,0
2003/3/8 23:45,0,0,0,0
2003/3/9 0:00,0,0,0,0
2003/3/9 0:15,0,0,0,0
2003/3/9 0:30,0,0,0,0
2003/3/9 0:45,0,0,0,0
2003/3/9 1:00,0,0,0,0
2003/3/9 1:15,0,0,0,0
2003/3/9 1:30,0,0,0,0
2003/3/9 1:45,0,0,0,0
2003/3/9 2:00,0,0,0,0
2003/3/9 2:15,0,0,0,0
2003/3/9 2:30,0,0,0,0
2003/3/9 2:45,0,0,0,0
2003/3/9 3:00,0,0,0,0
2003/3/9 3:15,0,0,0,0
2003/3/9 3:30,0,0,0,0
2003/3/9 3:45,0,0,0,0
2003/3/9 4:00,0,0,0,0
2003/3/9 4:15,0,0,0,0
2003/3/9 4:30,0,0,0,0
2003/3/9 4:45,0,0,0,0
2003/3/9 5:00,0,0,0,0
2003/3/9 5:15,0,0,0,0
2003/3/9 5:30,0,0,0,0
2003/3/9 5:45,0,0,0,0
2003/3/9 6:00,0,0,0,0
2003/3/9 6:15,0,0,0,0
2003/3/9 6:30,0,0,0,0
2003/3/9 6:45,0,0,0,0
2003/3/9 7:00,0,0,0,0
2003/3/9 7:15,0,0,0,0
2003/3/9 7:30,0,0,0,0
2003/3/9 7:45,0,0,0,0
2003/3/9 8:00,0,0,0,0
2003/3/9 8:15,0,0,0,0
2003/3/9 8:30,0,0,0,0
2003/3/9 8:45,0,0,0,0
2003/3/9 9:00,0.000055185,0,6.75,0
2003/3/9 9:15,0.00010062,0,12.31,0
2003/3/9 9:30,0.000078975,0,9.66,0
2003/3/9 9:45,0.000099255,0,12.14,0
2003/3/9 10:00,8.99438E-05,0,11,0
2003/3/9 10:15,8.89688E-05,0,10.88,0
2003/3/9 10:30,7.14188E-05,0,8.74,0
2003/3/9 10:45,6.05963E-05,0,3.05,0
2003/3/9 11:00,0.000069615,0,8.51,0
2003/3/9 11:15,5.92313E-05,0,7.25,0
2003/3/9 11:30,0.00005811,0,7.11,0
2003/3/9 11:45,0.00005148,0,6.3,0
2003/3/9 12:00,5.02125E-05,0,6.14,0
2003/3/9 12:15,0.00005148,0,6.3,0
2003/3/9 12:30,4.85063E-05,0,2.22,0
2003/3/9 12:45,0,0,0,0
2003/3/9 13:00,0,0,0,0
2003/3/9 13:15,0,0,0,0
2003/3/9 13:30,0.00006552,0,8.01,0
2003/3/9 13:45,8.72625E-05,0,10.67,0
2003/3/9 14:00,9.49163E-05,0,11.61,0
2003/3/9 14:15,7.12238E-05,0,8.71,0
2003/3/9 14:30,6.44475E-05,0,7.88,0
2003/3/9 14:45,5.20163E-05,0,6.37,0
2003/3/9 15:00,5.12363E-05,0,6.27,0
2003/3/9 15:15,6.90788E-05,0,8.45,0
2003/3/9 15:30,4.97738E-05,0,6.09,0
2003/3/9 15:45,4.86525E-05,0,5.95,0
2003/3/9 16:00,3.52463E-05,0,0,0
2003/3/9 16:15,0,0,0,0
2003/3/9 16:30,0,0,0,0
2003/3/9 16:45,0,0,0,0
2003/3/9 17:00,0,0,0,0
2003/3/9 17:15,0,0,0,0
2003/3/9 17:30,0,0,0,0
2003/3/9 17:45,0,0,0,0
2003/3/9 18:00,0,0,0,0
2003/3/9 18:15,0,0,0,0
2003/3/9 18:30,0,0,0,0
2003/3/9 18:45,0,0,0,0
2003/3/9 19:00,0,0,0,0
2003/3/9 19:15,0,0,0,0
2003/3/9 19:30,0,0,0,0
2003/3/9 19:45,0,0,0,0
2003/3/9 20:00,0,0,0,0
2003/3/9 20:15,0,0,0,0
2003/3/9 20:30,5.08463E-05,0,6.22,0
2003/3/9 20:45,0.00009243,0,11.3,0
2003/3/9 21:00,0.000073905,0,9.04,0
2003/3/9 21:15,6.17175E-05,0,7.55,0
2003/3/9 21:30,4.63613E-05,0,5.67,0
2003/3/9 21:45,4.47038E-05,0,5.47,0
2003/3/9 22:00,3.85125E-05,0,4.71,0
2003/3/9 22:15,2.95425E-05,0,3.61,0
2003/3/9 22:30,6.41063E-05,0,3.13,0
2003/3/9 22:45,0,0,0,0
2003/3/9 23:00,0,0,0,0
2003/3/9 23:15,0,0,0,0
2003/3/9 23:30,0,0,0,0
2003/3/9 23:45,0,0,0,0
2003/3/10 0:00,0,0,0,0
2003/3/10 0:15,0,0,0,0
2003/3/10 0:30,0,0,0,0
2003/3/10 0:45,0,0,0,0
2003/3/10 1:00,0,0,0,0
2003/3/10 1:15,0,0,0,0
2003/3/10 1:30,0,0,0,0
2003/3/10 1:45,0,0,0,0
2003/3/10 2:00,0,0,0,0
2003/3/10 2:15,0,0,0,0
2003/3/10 2:30,0,0,0,0
2003/3/10 2:45,0,0,0,0
2003/3/10 3:00,0,0,0,0
2003/3/10 3:15,0,0,0,0
2003/3/10 3:30,0,0,0,0
2003/3/10 3:45,0,0,0,0
2003/3/10 4:00,0,0,0,0
2003/3/10 4:15,0,0,0,0
2003/3/10 4:30,0,0,0,0
2003/3/10 4:45,0,0,0,0
2003/3/10 5:00,0,0,0,0
2003/3/10 5:15,0,0,0,0
2003/3/10 5:30,0,0,0,0
2003/3/10 5:45,0,0,0,0
2003/3/10 6:00,0,0,0,0
2003/3/10 6:15,8.52638E-05,0,10.43,0
2003/3/10 6:30,0.000093795,0,11.48,0
2003/3/10 6:45,7.57088E-05,0,3.83,0
2003/3/10 7:00,0,0,0,0
2003/3/10 7:15,0,0,0,0
2003/3/10 7:30,0,0,0,0
2003/3/10 7:45,0,0,0,0
2003/3/10 8:00,0,0,0,0
2003/3/10 8:15,0,0,0,0
2003/3/10 8:30,0,0,0,0
2003/3/10 8:45,0,0,0,0
2003/3/10 9:00,0,0,0,0
2003/3/10 9:15,0,0,0,0
2003/3/10 9:30,0,0,0,0
2003/3/10 9:45,0,0,0,0
2003/3/10 10:00,0,0,0,0
2003/3/10 10:15,0,0,0,0
2003/3/10 10:30,0,0,0,0
2003/3/10 10:45,0,0,0,0
2003/3/10 11:00,0,0,0,0
2003/3/10 11:15,0,0,0,0
2003/3/10 11:30,0,0,0,0
2003/3/10 11:45,0,0,0,0
2003/3/10 12:00,0,0,0,0
2003/3/10 12:15,0,0,0,0
2003/3/10 12:30,0,0,0,0
2003/3/10 12:45,0,0,0,0
2003/3/10 13:00,0,0,0,0
2003/3/10 13:15,0,0,0,0
2003/3/10 13:30,0,0,0,0
2003/3/10 13:45,0,0,0,0
2003/3/10 14:00,0,0,0,0
2003/3/10 14:15,0,0,0,0
2003/3/10 14:30,0,0,0,0
2003/3/10 14:45,0,0,0,0
2003/3/10 15:00,0,0,0,0
2003/3/10 15:15,0,0,0,0
2003/3/10 15:30,0,0,0,0
2003/3/10 15:45,0,0,0,0
2003/3/10 16:00,0,0,0,0
2003/3/10 16:15,0,0,0,0
2003/3/10 16:30,0,0,0,0
2003/3/10 16:45,0,0,0,0
2003/3/10 17:00,0,0,0,0
2003/3/10 17:15,0,0,0,0
2003/3/10 17:30,0,0,0,0
2003/3/10 17:45,0,0,0,0
2003/3/10 18:00,0,0,0,0
2003/3/10 18:15,0,0,0,0
2003/3/10 18:30,0,0,0,0
2003/3/10 18:45,0,0,0,0
2003/3/10 19:00,0,0,0,0
2003/3/10 19:15,0,0,0,0
2003/3/10 19:30,0,0,0,0
2003/3/10 19:45,0,0,0,0
2003/3/10 20:00,0,0,0,0
2003/3/10 20:15,0,0,0,0
2003/3/10 20:30,0,0,0,0
2003/3/10 20:45,0,0,0,0
2003/3/10 21:00,0,0,0,0
2003/3/10 21:15,0,0,0,0
2003/3/10 21:30,0,0,0,0
2003/3/10 21:45,0,0,0,0
2003/3/10 22:00,0,0,0,0
2003/3/10 22:15,0,0,0,0